[[{"header":{"parameterUnit":"m.s-1","parameterCategory":1,"la1":30.2991,"la2":30.254,"lo1":-89.0895,"lo2":-89.0444,"dy":0.0017,"dx":0.0017,"nx":28,"ny":28,"refTime":"2023-09-23T03:00:00:Z","depth":0,"parameterNumber":2,"parameterNumberName":"U-component_of_WINDS"},"data":[0,0,0,0,0,0,0,0,0,0,0,0,0,0,0,0,0,0,0,0,0,0,0,0,0,0,0,0,0,0,0,0,0,0,0,0,0,0,0,0,0,0,0,0,0,0,0,0,0,0,0,0,0,0,0,0,0,0,0.3103,0.3103,0,0.3148,0.3148,0.3149,0.3167,0.3167,0.3167,0.3167,0.3212,0.3213,0.3215,0,0,0,0,0,0,0,0,0,0,0,0,0,0.303,0.3032,0.3103,0.3103,0.3104,0.3148,0.3148,0.3149,0.3167,0.3167,0.3167,0.3167,0.3212,0.3213,0.3215,0,0,0,0,0,0,0,0,0,0,0,0,0,0.3067,0.3032,0.3103,0.3118,0.312,0.3148,0.3149,0.3149,0.3167,0.3167,0.3167,0.3167,0.3211,0.3213,0.3215,0.323,0,0,0.3221,0.3222,0,0,0,0,0,0,0,0,0.3065,0.307,0.3116,0.3117,0.312,0.3152,0.314,0.3176,0.3167,0.3149,0.3167,0.3167,0.3192,0.3196,0.3204,0.3232,0.3234,0.3221,0.3222,0.3223,0.3224,0,0,0,0,0,0,0,0.3063,0.3068,0.3121,0.3116,0.3119,0.3122,0.3128,0.3147,0.3171,0.3151,0.3153,0.3158,0.3193,0.3203,0.3206,0.3235,0.3221,0.3223,0.3224,0.3225,0.3276,0.3276,0,0,0,0,0,0,0.3058,0.3066,0.3119,0.3122,0.3091,0.3124,0.313,0.3142,0.3171,0.3175,0.3158,0.3158,0.3199,0.3203,0.3207,0.3226,0.3223,0.3225,0.3226,0.3275,0.3276,0.3276,0,0,0,0,0,0,0.3056,0.3062,0.3117,0.3094,0.3102,0.3125,0.3139,0.3143,0.3152,0.3176,0.318,0.3163,0.3199,0.3205,0.3224,0.3228,0.3226,0.3228,0.3275,0.3275,0.3276,0.3264,0,0,0,0,0,0,0.3054,0.3062,0.3068,0.3094,0.3103,0.3134,0.3139,0.3144,0.3155,0.3157,0.3182,0.3186,0.32,0.3221,0.3226,0.3231,0.3229,0.3275,0.3275,0.3276,0.3264,0.3264,0.3264,0,0,0,0,0,0.3051,0.3063,0.3068,0.3075,0.3112,0.3134,0.3139,0.3155,0.3156,0.3162,0.3177,0.3185,0.3227,0.3223,0.3229,0.3234,0.3275,0.3275,0.3276,0.3264,0.3264,0.3264,0,0,0,0,0,0,0.3036,0.3067,0.3073,0.3094,0.3111,0.3137,0.3146,0.3154,0.3171,0.3172,0.319,0.3196,0.3213,0.3226,0.3221,0.3249,0.3251,0.3253,0.3241,0.3241,0.324,0.3237,0.3231,0,0,0,0,0,0.3036,0.3052,0.3077,0.3093,0.3102,0.3122,0.3133,0.3143,0.3162,0.3169,0.3186,0.3203,0.322,0.3231,0.3248,0.3266,0.3271,0.3272,0.3272,0.3271,0.3273,0.3282,0.3283,0.3277,0.3277,0.3277,0,0,0.3034,0.3053,0.3062,0.3091,0.3105,0.3121,0.3128,0.3145,0.3157,0.3172,0.3191,0.3204,0.3224,0.3243,0.3252,0.3253,0.3275,0.3272,0.3272,0.3273,0.3283,0.3283,0.3284,0.3277,0.3277,0.3277,0,0,0.3039,0.3055,0.307,0.3084,0.3107,0.312,0.3123,0.3148,0.3157,0.3177,0.3188,0.3202,0.3231,0.3245,0.3255,0.3264,0.3272,0.3269,0.3268,0.3277,0.3277,0.3278,0.3281,0.3282,0.327,0.327,0.327,0,0.3034,0.3059,0.3076,0.3092,0.3104,0.3118,0.3132,0.3145,0.3172,0.3179,0.3181,0.3217,0.3232,0.3253,0.3255,0.3264,0.3268,0.3267,0.3276,0.3277,0.3277,0.328,0.3281,0.327,0.327,0.327,0.327,0,0.3052,0.3069,0.3078,0.3103,0.3116,0.3131,0.3149,0.316,0.3169,0.3182,0.3201,0.3219,0.324,0.3245,0.3255,0.3268,0.3268,0.3273,0.3275,0.3277,0.328,0.3281,0.3269,0.3269,0.3269,0.327,0,0,0.305,0.3084,0.3086,0.3098,0.3123,0.3136,0.3151,0.3171,0.318,0.3197,0.321,0.3233,0.3237,0.3249,0.326,0.3268,0.3273,0.3271,0.3272,0.3271,0.3288,0.3285,0.3286,0.3278,0.3278,0.3279,0.3286,0,0.3058,0.3087,0.3101,0.3123,0.3138,0.3151,0.3164,0.3181,0.3193,0.3207,0.322,0.3236,0.3241,0.3248,0.3256,0.3271,0.3277,0.327,0.329,0.329,0.3284,0.3287,0.3284,0.3291,0.3288,0.3288,0.3288,0,0.3072,0.3089,0.3112,0.3135,0.3142,0.3153,0.3172,0.3186,0.3204,0.3212,0.3226,0.3236,0.3251,0.3252,0.3274,0.3269,0.3277,0.3285,0.3286,0.3289,0.3289,0.329,0.3293,0.3294,0.329,0.329,0.329,0,0.3068,0.3097,0.3114,0.3123,0.315,0.3157,0.3169,0.3187,0.3198,0.3214,0.3221,0.3239,0.3249,0.3262,0.3277,0.3276,0.3296,0.3299,0.3303,0.3303,0.3307,0.3307,0.3312,0.3312,0.3312,0.3312,0.3312,0,0.3075,0.3089,0.3112,0.3123,0.3138,0.3154,0.3169,0.3181,0.3197,0.321,0.3222,0.3233,0.3252,0.3265,0.3277,0.3292,0.3297,0.3303,0.3306,0.3302,0.3301,0.3308,0.3308,0.3313,0.3313,0.3313,0.3313,0,0.3073,0.309,0.3109,0.3133,0.3139,0.3149,0.3168,0.3179,0.3191,0.3207,0.3212,0.3231,0.3248,0.3263,0.3285,0.3293,0.3309,0.3312,0.3302,0.3304,0.3307,0.3307,0.3317,0.3319,0.3319,0.3319,0.3319,0,0.3077,0.3088,0.3112,0.3122,0.3133,0.3148,0.3159,0.3175,0.3186,0.3207,0.3214,0.3232,0.3247,0.3273,0.3288,0.3305,0.3309,0.3312,0.3312,0.3307,0.3309,0.3308,0.3309,0.3311,0.3311,0.3311,0.3311,0,0.3082,0.3089,0.3105,0.3123,0.3136,0.3151,0.3166,0.3173,0.3192,0.3203,0.322,0.3232,0.3254,0.3271,0.329,0.3301,0.3309,0.3311,0.3313,0.3309,0.3303,0.3306,0.3301,0.3311,0.3311,0.3311,0.3311,0.3311,0.3083,0.3093,0.3111,0.3128,0.3141,0.3155,0.3166,0.3179,0.3194,0.3213,0.3222,0.3239,0.3256,0.3282,0.3292,0.3306,0.3308,0.331,0.3311,0.3312,0.3311,0.3301,0.3309,0.3309,0.3309,0.3309,0.3309,0,0.3088,0.3101,0.3116,0.3137,0.315,0.3156,0.3173,0.3183,0.3198,0.3214,0.3228,0.3247,0.3263,0.328,0.3297,0.3305,0.3309,0.3308,0.3308,0.331,0.3308,0.3305,0.3305,0.3305,0.3305,0.3305,0.3305,0.3305,0.3093,0.3109,0.3118,0.3141,0.3154,0.3171,0.318,0.3192,0.3204,0.3225,0.3239,0.325,0.3266,0.3284,0.3299,0.3303,0.3309,0.3307,0.3313,0.331,0.3311,0.3311,0.3308,0.3309,0.3309,0.3314,0.3314,0.3314]},{"header":{"parameterUnit":"m.s-1","parameterCategory":1,"la1":30.2991,"la2":30.254,"lo1":-89.0895,"lo2":-89.0444,"dy":0.0017,"dx":0.0017,"nx":28,"ny":28,"refTime":"2023-09-23T03:00:00:Z","depth":0,"parameterNumber":3,"parameterNumberName":"V-component_of_WINDS"},"data":[0,0,0,0,0,0,0,0,0,0,0,0,0,0,0,0,0,0,0,0,0,0,0,0,0,0,0,0,0,0,0,0,0,0,0,0,0,0,0,0,0,0,0,0,0,0,0,0,0,0,0,0,0,0,0,0,0,0,3.2954,3.2953,0,3.2893,3.2892,3.2892,3.2803,3.2801,3.28,3.2798,3.2737,3.2737,3.2737,0,0,0,0,0,0,0,0,0,0,0,0,0,3.2993,3.2993,3.2954,3.2953,3.2952,3.2893,3.2892,3.2892,3.2803,3.2801,3.2799,3.2797,3.2737,3.2737,3.2737,0,0,0,0,0,0,0,0,0,0,0,0,0,3.2959,3.2992,3.2954,3.2901,3.2895,3.2893,3.2892,3.2891,3.2803,3.2801,3.2799,3.2797,3.2737,3.2737,3.2737,3.2782,0,0,3.2736,3.2736,0,0,0,0,0,0,0,0,3.2961,3.2957,3.2909,3.2904,3.2898,3.2853,3.2884,3.2855,3.2804,3.2838,3.2798,3.2795,3.2778,3.2774,3.2768,3.2779,3.2776,3.2736,3.2736,3.2736,3.2736,0,0,0,0,0,0,0,3.2963,3.2959,3.293,3.2909,3.2902,3.288,3.2873,3.2878,3.2822,3.2835,3.2829,3.2823,3.2774,3.2768,3.2766,3.2776,3.2736,3.2736,3.2736,3.2735,3.2819,3.2821,0,0,0,0,0,0,3.2973,3.2962,3.2932,3.2928,3.2924,3.2881,3.2873,3.287,3.2822,3.2812,3.2825,3.2819,3.277,3.2766,3.2763,3.2811,3.2736,3.2735,3.2735,3.2816,3.2819,3.2822,0,0,0,0,0,0,3.2974,3.2971,3.2934,3.2943,3.2937,3.2883,3.2881,3.287,3.2864,3.2814,3.2803,3.2829,3.2768,3.2764,3.2777,3.2807,3.2735,3.2735,3.2814,3.2817,3.2821,3.2908,0,0,0,0,0,0,3.2976,3.2972,3.2989,3.2944,3.2937,3.295,3.2882,3.2871,3.2864,3.2855,3.2815,3.2806,3.2766,3.2778,3.2777,3.2806,3.2735,3.2811,3.2815,3.2819,3.2902,3.2914,3.2924,0,0,0,0,0,3.2978,3.3017,3.299,3.2987,3.2956,3.2951,3.2947,3.29,3.2866,3.2882,3.285,3.2807,3.2805,3.278,3.2778,3.2808,3.2808,3.2814,3.2819,3.2897,3.2912,3.2924,0,0,0,0,0,0,3.3067,3.301,3.298,3.3005,3.2984,3.2936,3.2955,3.2917,3.2905,3.2898,3.284,3.2832,3.2852,3.2832,3.2805,3.2848,3.28,3.2805,3.286,3.2873,3.2884,3.2888,3.2735,0,0,0,0,0,3.3089,3.309,3.304,3.3068,3.3059,3.3009,3.3005,3.2971,3.2946,3.2937,3.2905,3.2883,3.2877,3.2875,3.2867,3.2899,3.2888,3.2918,3.293,3.2939,3.2943,3.2957,3.2969,3.2839,3.2839,3.2839,0,0,3.3136,3.3105,3.3109,3.3085,3.3064,3.3066,3.3002,3.3007,3.3007,3.2938,3.2948,3.2924,3.2896,3.2919,3.2928,3.2902,3.2977,3.2946,3.2954,3.2953,3.2964,3.2976,3.2987,3.2843,3.2842,3.2842,0,0,3.3221,3.3199,3.3218,3.3198,3.3167,3.3134,3.3139,3.3097,3.3079,3.3088,3.3035,3.3036,3.3027,3.3008,3.2998,3.3076,3.3035,3.3075,3.3132,3.3146,3.3156,3.3165,3.3191,3.3201,3.308,3.3081,3.3081,0,3.3283,3.3283,3.3233,3.324,3.3231,3.3168,3.3186,3.317,3.3139,3.3133,3.3106,3.3093,3.3069,3.3086,3.3105,3.3099,3.3102,3.3078,3.3159,3.3167,3.3175,3.3198,3.3208,3.3085,3.3085,3.3084,3.3084,0,3.3359,3.3361,3.338,3.335,3.3343,3.3357,3.3308,3.3307,3.3273,3.3243,3.3253,3.3223,3.3207,3.3209,3.3176,3.322,3.3205,3.317,3.312,3.3193,3.3214,3.3223,3.3092,3.3091,3.3089,3.3088,0,0,3.3497,3.3439,3.3447,3.3432,3.3394,3.3393,3.3404,3.3388,3.3387,3.3368,3.3374,3.3369,3.3335,3.3323,3.3288,3.3301,3.3362,3.3263,3.3261,3.328,3.3406,3.3431,3.3442,3.3335,3.3337,3.3338,3.3407,0,3.3573,3.3586,3.3541,3.3567,3.3566,3.3506,3.3515,3.3493,3.3465,3.346,3.343,3.3426,3.3383,3.3375,3.3385,3.3352,3.3386,3.3347,3.3339,3.3339,3.3345,3.3454,3.3481,3.3547,3.3415,3.3417,3.3418,0,3.3662,3.3647,3.3672,3.3631,3.3629,3.3638,3.3618,3.3616,3.3588,3.3567,3.3554,3.3513,3.352,3.3475,3.3482,3.3457,3.3451,3.3435,3.3436,3.3432,3.3381,3.345,3.3568,3.3577,3.3431,3.343,3.3429,0,3.3757,3.3743,3.3755,3.3745,3.3698,3.3706,3.3687,3.3657,3.365,3.3634,3.3628,3.3613,3.3604,3.3594,3.355,3.3521,3.3562,3.3513,3.3543,3.3544,3.3552,3.3552,3.3668,3.3553,3.3553,3.3553,3.3553,0,3.3845,3.3862,3.3797,3.3805,3.3822,3.3771,3.3789,3.3764,3.3738,3.3739,3.3688,3.369,3.3633,3.3629,3.3595,3.3605,3.3602,3.3584,3.3575,3.3588,3.359,3.3581,3.3575,3.3555,3.3555,3.3554,3.3554,0,3.3953,3.3911,3.392,3.3875,3.3864,3.3878,3.3839,3.3844,3.3814,3.3816,3.3813,3.3765,3.3757,3.3713,3.3695,3.3672,3.3694,3.3676,3.3703,3.3696,3.3727,3.3724,3.384,3.3852,3.3732,3.3734,3.3735,0,3.401,3.4021,3.3978,3.3975,3.3958,3.3954,3.3946,3.3896,3.389,3.386,3.3868,3.3856,3.3844,3.3834,3.3797,3.3783,3.3763,3.3805,3.376,3.3772,3.376,3.3759,3.3759,3.3813,3.3815,3.3816,3.3817,0,3.4115,3.4094,3.4085,3.4068,3.406,3.4045,3.4026,3.4027,3.3971,3.3967,3.3958,3.3949,3.393,3.3918,3.3898,3.3877,3.3838,3.3832,3.3837,3.3849,3.3863,3.3854,3.3726,3.3829,3.3828,3.3827,3.3826,3.3826,3.4198,3.4205,3.4175,3.4166,3.4147,3.413,3.4132,3.4102,3.4093,3.4074,3.4046,3.404,3.4012,3.398,3.3963,3.3958,3.3935,3.3944,3.3946,3.3948,3.3954,3.3866,3.3954,3.3954,3.3953,3.3953,3.3953,0,3.4298,3.4276,3.4269,3.4244,3.4237,3.4201,3.4179,3.4175,3.4171,3.4148,3.4137,3.4126,3.4114,3.4076,3.406,3.4063,3.4045,3.4061,3.4059,3.4054,3.3976,3.3972,3.4076,3.4076,3.4076,3.4076,3.4076,3.4076,3.435,3.4359,3.4334,3.4333,3.431,3.4305,3.4295,3.4279,3.426,3.425,3.424,3.4216,3.4187,3.4168,3.4155,3.4144,3.414,3.4161,3.4144,3.4072,3.406,3.4049,3.4044,3.4161,3.4162,3.4222,3.4223,3.4223]}]]